• In Deutschland
  • Länderverzeichnis
  • Für 7 Tage
  • Wassertemperatur
  • Satellitenkarten
  • Wetterkarte
  • Widgets
  • user-avatar
    Anmelden

    Stündliche Wetter Albany

    Heute, 24 Juli, Montag

    Zeit Temperatur Niederschläge Wind Luftdruck Luftfeuchtigkeit
    00:00 +10°C° 0 mm 7 m/S 757 mmHg 82%
    01:00 +9°C° 0 mm 6 m/S 757 mmHg 83%
    02:00 +9°C° 0 mm 6 m/S 757 mmHg 84%
    03:00 +9°C° 0 mm 6 m/S 757 mmHg 85%
    04:00 +9°C° 0 mm 6 m/S 757 mmHg 86%
    05:00 +9°C° 0 mm 6 m/S 757 mmHg 87%
    06:00 +9°C° 0,1 mm 6 m/S 757 mmHg 87%
    07:00 +9°C° 0,1 mm 6 m/S 758 mmHg 86%
    08:00 +9°C° 0 mm 5 m/S 758 mmHg 85%
    09:00 +11°C° 0,1 mm 6 m/S 758 mmHg 79%
    10:00 +13°C° 0,1 mm 6 m/S 758 mmHg 72%
    11:00 +14°C° 0,1 mm 6 m/S 758 mmHg 66%
    12:00 +15°C° 0,1 mm 6 m/S 758 mmHg 63%
    13:00 +15°C° 0,1 mm 6 m/S 758 mmHg 60%
    14:00 +16°C° 0,1 mm 6 m/S 758 mmHg 58%
    15:00 +15°C° 0 mm 5 m/S 758 mmHg 61%
    16:00 +14°C° 0 mm 4 m/S 758 mmHg 65%
    17:00 +13°C° 0 mm 4 m/S 758 mmHg 68%
    18:00 +12°C° 0,1 mm 4 m/S 758 mmHg 72%
    19:00 +12°C° 0,1 mm 4 m/S 759 mmHg 77%
    20:00 +11°C° 0,1 mm 3 m/S 759 mmHg 81%
    21:00 +10°C° 0,1 mm 4 m/S 759 mmHg 84%
    22:00 +10°C° 0,1 mm 4 m/S 759 mmHg 86%
    23:00 +10°C° 0,1 mm 4 m/S 759 mmHg 88%

    Morgen, 25 Juli, Dienstag

    Zeit Temperatur Niederschläge Wind Luftdruck Luftfeuchtigkeit
    00:00 +8°C° 0,1 mm 4 m/S 759 mmHg 89%
    01:00 +8°C° 0,1 mm 4 m/S 760 mmHg 89%
    02:00 +8°C° 0,1 mm 4 m/S 760 mmHg 90%
    03:00 +8°C° 0,1 mm 4 m/S 760 mmHg 90%
    04:00 +8°C° 0,1 mm 4 m/S 760 mmHg 90%
    05:00 +8°C° 0,1 mm 4 m/S 759 mmHg 91%
    06:00 +8°C° 0 mm 4 m/S 760 mmHg 90%
    07:00 +8°C° 0 mm 5 m/S 760 mmHg 90%
    08:00 +8°C° 0 mm 5 m/S 760 mmHg 90%
    09:00 +10°C° 0 mm 5 m/S 760 mmHg 82%
    10:00 +13°C° 0 mm 5 m/S 760 mmHg 74%
    11:00 +16°C° 0 mm 5 m/S 760 mmHg 66%
    12:00 +16°C° 0 mm 5 m/S 760 mmHg 63%
    13:00 +17°C° 0 mm 5 m/S 759 mmHg 61%
    14:00 +19°C° 0 mm 5 m/S 758 mmHg 58%
    15:00 +17°C° 0 mm 5 m/S 758 mmHg 61%
    16:00 +16°C° 0 mm 5 m/S 758 mmHg 64%
    17:00 +16°C° 0 mm 5 m/S 758 mmHg 68%
    18:00 +15°C° 0 mm 5 m/S 758 mmHg 70%
    19:00 +15°C° 0 mm 6 m/S 758 mmHg 72%
    20:00 +14°C° 0 mm 7 m/S 758 mmHg 74%
    21:00 +14°C° 0 mm 7 m/S 758 mmHg 77%
    22:00 +14°C° 0 mm 7 m/S 757 mmHg 80%
    23:00 +12°C° 0 mm 7 m/S 757 mmHg 84%

    übermorgen, 26 Juli, Mittwoch

    Zeit Temperatur Niederschläge Wind Luftdruck Luftfeuchtigkeit
    00:00 +12°C° 0 mm 7 m/S 757 mmHg 84%
    01:00 +12°C° 0 mm 7 m/S 757 mmHg 84%
    02:00 +12°C° 0 mm 7 m/S 756 mmHg 84%
    03:00 +14°C° 0,1 mm 7 m/S 756 mmHg 84%
    04:00 +14°C° 0,1 mm 7 m/S 756 mmHg 84%
    05:00 +14°C° 0,1 mm 7 m/S 755 mmHg 84%
    06:00 +13°C° 0,1 mm 8 m/S 755 mmHg 84%
    07:00 +13°C° 0,1 mm 8 m/S 755 mmHg 84%
    08:00 +15°C° 0,1 mm 8 m/S 755 mmHg 84%
    09:00 +16°C° 0,2 mm 8 m/S 755 mmHg 78%
    10:00 +17°C° 0,2 mm 8 m/S 755 mmHg 73%
    11:00 +18°C° 0,2 mm 9 m/S 756 mmHg 68%
    12:00 +17°C° 0,3 mm 9 m/S 755 mmHg 68%
    13:00 +17°C° 0,3 mm 9 m/S 755 mmHg 68%
    14:00 +17°C° 0,3 mm 9 m/S 755 mmHg 68%
    15:00 +16°C° 0,1 mm 8 m/S 755 mmHg 69%
    16:00 +15°C° 0,1 mm 8 m/S 755 mmHg 70%
    17:00 +13°C° 0,1 mm 8 m/S 756 mmHg 71%
    18:00 +12°C° 0 mm 7 m/S 756 mmHg 72%
    19:00 +12°C° 0 mm 7 m/S 757 mmHg 73%
    20:00 +11°C° 0 mm 7 m/S 758 mmHg 73%
    21:00 +11°C° 0 mm 7 m/S 758 mmHg 75%
    22:00 +10°C° 0 mm 7 m/S 758 mmHg 76%
    23:00 +10°C° 0 mm 6 m/S 759 mmHg 77%

    27 Juli, Donnerstag

    Zeit Temperatur Niederschläge Wind Luftdruck Luftfeuchtigkeit
    00:00 +9°C° 0 mm 6 m/S 759 mmHg 78%
    01:00 +9°C° 0 mm 5 m/S 758 mmHg 80%
    02:00 +10°C° 0 mm 4 m/S 758 mmHg 82%
    03:00 +8°C° 0 mm 4 m/S 758 mmHg 84%
    04:00 +8°C° 0 mm 4 m/S 758 mmHg 87%
    05:00 +8°C° 0 mm 3 m/S 758 mmHg 89%
    06:00 +7°C° 0 mm 4 m/S 757 mmHg 87%
    07:00 +8°C° 0 mm 4 m/S 757 mmHg 85%
    08:00 +8°C° 0 mm 5 m/S 757 mmHg 83%
    09:00 +10°C° 0 mm 6 m/S 756 mmHg 77%
    10:00 +13°C° 0 mm 6 m/S 756 mmHg 71%
    11:00 +15°C° 0 mm 7 m/S 755 mmHg 65%
    12:00 +15°C° 0,5 mm 8 m/S 753 mmHg 71%
    13:00 +15°C° 0,5 mm 8 m/S 752 mmHg 78%
    14:00 +15°C° 0,5 mm 9 m/S 750 mmHg 85%
    15:00 +15°C° 0,6 mm 9 m/S 750 mmHg 84%
    16:00 +16°C° 0,6 mm 10 m/S 749 mmHg 83%
    17:00 +17°C° 0,6 mm 10 m/S 749 mmHg 81%
    18:00 +16°C° 0,9 mm 10 m/S 749 mmHg 81%
    19:00 +16°C° 0,9 mm 10 m/S 749 mmHg 80%
    20:00 +16°C° 0,9 mm 9 m/S 749 mmHg 80%
    21:00 +15°C° 2,5 mm 9 m/S 748 mmHg 84%
    22:00 +15°C° 2,5 mm 8 m/S 748 mmHg 87%
    23:00 +13°C° 2,5 mm 8 m/S 748 mmHg 91%

    28 Juli, Freitag

    Zeit Temperatur Niederschläge Wind Luftdruck Luftfeuchtigkeit
    00:00 +13°C° 0,9 mm 8 m/S 748 mmHg 90%
    01:00 +12°C° 0,9 mm 8 m/S 747 mmHg 89%
    02:00 +12°C° 0,9 mm 8 m/S 747 mmHg 88%
    03:00 +11°C° 0,2 mm 8 m/S 747 mmHg 87%
    04:00 +11°C° 0,2 mm 9 m/S 747 mmHg 86%
    05:00 +11°C° 0,2 mm 9 m/S 747 mmHg 85%
    06:00 +9°C° 0,3 mm 10 m/S 747 mmHg 83%
    07:00 +9°C° 0,3 mm 10 m/S 748 mmHg 81%
    08:00 +9°C° 0,3 mm 10 m/S 748 mmHg 80%
    09:00 +11°C° 0,2 mm 11 m/S 748 mmHg 73%
    10:00 +12°C° 0,2 mm 12 m/S 749 mmHg 67%
    11:00 +12°C° 0,2 mm 12 m/S 749 mmHg 60%
    12:00 +12°C° 0,2 mm 12 m/S 749 mmHg 58%
    13:00 +12°C° 0,2 mm 13 m/S 749 mmHg 57%
    14:00 +12°C° 0,2 mm 13 m/S 749 mmHg 55%
    15:00 +10°C° 0,3 mm 12 m/S 750 mmHg 61%
    16:00 +9°C° 0,3 mm 10 m/S 750 mmHg 67%
    17:00 +8°C° 0,3 mm 9 m/S 751 mmHg 73%
    18:00 +7°C° 0,5 mm 9 m/S 752 mmHg 76%
    19:00 +7°C° 0,5 mm 9 m/S 753 mmHg 79%
    20:00 +6°C° 0,5 mm 8 m/S 753 mmHg 83%
    21:00 +6°C° 0,6 mm 8 m/S 754 mmHg 82%
    22:00 +6°C° 0,6 mm 9 m/S 754 mmHg 82%
    23:00 +6°C° 0,6 mm 9 m/S 754 mmHg 82%

    29 Juli, Samstag

    Zeit Temperatur Niederschläge Wind Luftdruck Luftfeuchtigkeit
    00:00 +6°C° 0,7 mm 9 m/S 754 mmHg 82%
    01:00 +6°C° 0,7 mm 9 m/S 755 mmHg 82%
    02:00 +6°C° 0,7 mm 10 m/S 755 mmHg 81%
    03:00 +6°C° 0,5 mm 10 m/S 756 mmHg 80%
    04:00 +6°C° 0,5 mm 10 m/S 756 mmHg 79%
    05:00 +6°C° 0,5 mm 10 m/S 757 mmHg 78%
    06:00 +6°C° 0,2 mm 9 m/S 758 mmHg 76%
    07:00 +7°C° 0,2 mm 9 m/S 758 mmHg 75%
    08:00 +7°C° 0,2 mm 9 m/S 759 mmHg 73%
    09:00 +8°C° 0,2 mm 9 m/S 760 mmHg 72%
    10:00 +10°C° 0,2 mm 9 m/S 760 mmHg 70%
    11:00 +11°C° 0,2 mm 9 m/S 760 mmHg 68%
    12:00 +11°C° 0,2 mm 9 m/S 760 mmHg 67%
    13:00 +12°C° 0,2 mm 9 m/S 760 mmHg 67%
    14:00 +12°C° 0,2 mm 8 m/S 760 mmHg 66%
    15:00 +11°C° 0,2 mm 8 m/S 761 mmHg 68%
    16:00 +11°C° 0,2 mm 8 m/S 761 mmHg 70%
    17:00 +11°C° 0,2 mm 7 m/S 762 mmHg 71%
    18:00 +10°C° 0,1 mm 7 m/S 762 mmHg 75%
    19:00 +10°C° 0,1 mm 7 m/S 763 mmHg 78%
    20:00 +9°C° 0,1 mm 6 m/S 763 mmHg 81%
    21:00 +9°C° 0,1 mm 6 m/S 763 mmHg 82%
    22:00 +9°C° 0,1 mm 6 m/S 763 mmHg 83%
    23:00 +8°C° 0,1 mm 6 m/S 763 mmHg 85%
    Mehr zeigen